Location: Chandolas
(44.4033°N, 4.2533°E)
Time: 16:19:09
(UTC+00:00)

Cosmos 1937 Rocket - Pass Details

Date: 15 November 2019
Orbit: 747 x 780 km, 74.0° (Epoch: 05 December)

Event Time Altitude Azimuth Distance (km) Brightness Sun altitude
Rises 05:00:52 0° 203° (SSW) 3,189 6.6 -17.4°
Reaches altitude 10° 05:03:13 10° 205° (SSW) 2,265 5.8 -17.0°
Maximum altitude 05:08:21 76° 291° (WNW) 775 3.3 -16.1°
Drops below altitude 10° 05:13:30 10° 18° (NNE) 2,273 6.0 -15.2°
Sets 05:15:53 0° 20° (NNE) 3,202 6.8 -14.8°
